| time (UTC) | temp F | wind direction | speed MPH | gust MPH | rain 1hr in | rain 24hr in | rain mn in | humidity % | barometer mb |
| 20260902041555 | 58 | 182 | 0.0 | 0.0 | 0.00 | 0.00 | 0.00 | 63 | 1005.7 |
| 20260902040057 | 59 | 186 | 0.0 | 0.0 | 0.00 | 0.00 | 0.00 | 61 | 1005.7 |
| 20260902034558 | 59 | 141 | 0.0 | 0.0 | 0.00 | 0.00 | 0.00 | 60 | 1005.7 |
| 20260902033056 | 60 | 151 | 0.0 | 8.0 | 0.00 | 0.00 | 0.00 | 59 | 1005.5 |
| 20260902031542 | 60 | 148 | 1.0 | 11.0 | 0.00 | 0.00 | 0.00 | 58 | 1005.4 |
| 20260902030153 | 60 | 110 | 0.0 | 3.0 | 0.00 | 0.00 | 0.00 | 58 | 1005.3 |
| 20260902024610 | 60 | 161 | 3.0 | 10.0 | 0.00 | 0.00 | 0.00 | 58 | 1005.1 |
| 20260902023109 | 60 | 115 | 3.0 | 13.0 | 0.00 | 0.00 | 0.00 | 59 | 1004.9 |
| 20260902021604 | 60 | 92 | 4.0 | 10.0 | 0.00 | 0.00 | 0.00 | 60 | 1004.9 |
| 20260902020107 | 60 | 134 | 0.0 | 9.0 | 0.00 | 0.00 | 0.00 | 58 | 1004.6 |
| 20260902014552 | 61 | 161 | 0.0 | 0.0 | 0.00 | 0.01 | 0.00 | 54 | 1004.6 |
| 20260902013037 | 62 | 161 | 0.0 | 5.0 | 0.00 | 0.01 | 0.00 | 48 | 1004.6 |
| 20260902011532 | 64 | 158 | 0.0 | 0.0 | 0.00 | 0.01 | 0.00 | 43 | 1004.8 |
| 20260902010127 | 65 | 184 | 0.0 | 0.0 | 0.00 | 0.01 | 0.00 | 37 | 1005.0 |
| 20260902004601 | 66 | 184 | 0.0 | 0.0 | 0.00 | 0.01 | 0.00 | 36 | 1005.0 |
| 20260902003127 | 67 | 184 | 0.0 | 0.0 | 0.00 | 0.01 | 0.00 | 35 | 1005.1 |
| 20260902001655 | 68 | 198 | 0.0 | 0.0 | 0.00 | 0.01 | 0.00 | 34 | 1005.1 |
| 20260902000040 | 70 | 158 | 0.0 | 0.0 | 0.00 | 0.01 | 0.00 | 31 | 1005.0 |
| 20260901234541 | 71 | 167 | 0.0 | 2.0 | 0.00 | 0.01 | 0.00 | 30 | 1005.2 |
| 20260901233048 | 71 | 277 | 0.0 | 6.0 | 0.00 | 0.01 | 0.00 | 30 | 1005.2 |
| 20260901231521 | 69 | 269 | 0.0 | 0.0 | 0.00 | 0.01 | 0.00 | 30 | 1005.4 |
| 20260901230047 | 70 | 273 | 0.0 | 9.0 | 0.00 | 0.01 | 0.00 | 30 | 1005.7 |
| 20260901224553 | 71 | 117 | 0.0 | 0.0 | 0.00 | 0.01 | 0.00 | 29 | 1005.7 |
| 20260901223057 | 70 | 192 | 0.0 | 0.0 | 0.00 | 0.01 | 0.00 | 28 | 1005.9 |
| 20260901221600 | 70 | 117 | 0.0 | 0.0 | 0.00 | 0.01 | 0.00 | 30 | 1005.7 |
| 20260901220127 | 69 | 254 | 0.0 | 0.0 | 0.00 | 0.01 | 0.00 | 32 | 1005.9 |
| 20260901214522 | 69 | 244 | 0.0 | 0.0 | 0.00 | 0.01 | 0.00 | 28 | 1006.1 |
| 20260901213127 | 68 | 185 | 0.0 | 1.0 | 0.00 | 0.01 | 0.00 | 30 | 1006.2 |
| 20260901211508 | 70 | 196 | 0.0 | 4.0 | 0.00 | 0.01 | 0.00 | 27 | 1006.4 |
| 20260901210029 | 70 | 151 | 4.0 | 16.0 | 0.00 | 0.01 | 0.00 | 29 | 1006.6 |
| 20260901204506 | 68 | 175 | 0.0 | 2.0 | 0.00 | 0.01 | 0.00 | 35 | 1006.6 |
| 20260901203126 | 67 | 263 | 0.0 | 0.0 | 0.00 | 0.01 | 0.00 | 36 | 1006.7 |
| 20260901201629 | 67 | 273 | 0.0 | 0.0 | 0.00 | 0.01 | 0.00 | 37 | 1006.7 |
| 20260901200121 | 68 | 190 | 0.0 | 11.0 | 0.00 | 0.01 | 0.00 | 40 | 1006.8 |
| 20260901194532 | 69 | 217 | 0.0 | 7.0 | 0.00 | 0.01 | 0.00 | 37 | 1006.7 |
| 20260901193019 | 67 | 232 | 1.0 | 12.0 | 0.00 | 0.01 | 0.00 | 37 | 1006.8 |
| 20260901191532 | 64 | 346 | 0.0 | 11.0 | 0.00 | 0.01 | 0.00 | 44 | 1006.7 |
| 20260901190043 | 63 | 155 | 0.0 | 0.0 | 0.00 | 0.01 | 0.00 | 49 | 1007.1 |
| 20260901184524 | 63 | 120 | 0.0 | 0.0 | 0.00 | 0.01 | 0.00 | 49 | 1007.3 |
| 20260901183101 | 63 | 271 | 0.0 | 0.0 | 0.00 | 0.01 | 0.00 | 49 | 1007.3 |
| 20260901181552 | 65 | 258 | 0.0 | 0.0 | 0.00 | 0.01 | 0.00 | 47 | 1007.5 |
| 20260901180100 | 64 | 188 | 0.0 | 0.0 | 0.00 | 0.01 | 0.00 | 51 | 1007.6 |
| 20260901174510 | 64 | 355 | 0.0 | 0.0 | 0.00 | 0.01 | 0.00 | 47 | 1007.7 |
| 20260901173038 | 63 | 345 | 0.0 | 0.0 | 0.00 | 0.01 | 0.00 | 50 | 1007.9 |
| 20260901171542 | 63 | 175 | 0.0 | 9.0 | 0.00 | 0.01 | 0.00 | 52 | 1008.1 |
| 20260901170051 | 62 | 263 | 0.0 | 8.0 | 0.00 | 0.01 | 0.00 | 55 | 1008.1 |
| 20260901164600 | 61 | 173 | 0.0 | 1.0 | 0.00 | 0.01 | 0.00 | 59 | 1008.0 |
| 20260901163018 | 60 | 238 | 0.0 | 4.0 | 0.00 | 0.01 | 0.00 | 61 | 1008.0 |
| 20260901161543 | 58 | 136 | 0.0 | 0.0 | 0.00 | 0.01 | 0.00 | 69 | 1008.0 |
| 20260901154618 | 55 | 161 | 0.0 | 0.0 | 0.00 | 0.01 | 0.00 | 71 | 1007.9 |
| 20260901153129 | 55 | 161 | 0.0 | 0.0 | 0.00 | 0.01 | 0.00 | 73 | 1008.1 |
| 20260901151510 | 54 | 161 | 0.0 | 0.0 | 0.00 | 0.01 | 0.00 | 75 | 1008.1 |
| 20260901150030 | 54 | 176 | 0.0 | 0.0 | 0.00 | 0.01 | 0.00 | 74 | 1008.2 |
| 20260901144538 | 54 | 135 | 0.0 | 0.0 | 0.00 | 0.01 | 0.00 | 73 | 1008.2 |
| 20260901143044 | 53 | 251 | 0.0 | 0.0 | 0.00 | 0.01 | 0.00 | 74 | 1008.3 |
| 20260901141601 | 53 | 192 | 0.0 | 0.0 | 0.00 | 0.01 | 0.00 | 74 | 1008.1 |
| 20260901134606 | 53 | 195 | 0.0 | 0.0 | 0.00 | 0.01 | 0.00 | 75 | 1008.0 |
| 20260901133002 | 52 | 149 | 0.0 | 0.0 | 0.00 | 0.01 | 0.00 | 77 | 1007.9 |
| 20260901131518 | 52 | 149 | 0.0 | 0.0 | 0.00 | 0.01 | 0.00 | 78 | 1007.7 |
| 20260901130041 | 52 | 138 | 0.0 | 0.0 | 0.00 | 0.01 | 0.00 | 79 | 1007.5 |
| 20260901124548 | 52 | 175 | 0.0 | 0.0 | 0.00 | 0.01 | 0.00 | 79 | 1007.3 |
| 20260901123057 | 52 | 150 | 0.0 | 0.0 | 0.00 | 0.01 | 0.00 | 79 | 1007.0 |
| 20260901121501 | 52 | 155 | 0.0 | 0.0 | 0.00 | 0.01 | 0.00 | 77 | 1006.9 |
| 20260901120105 | 53 | 155 | 0.0 | 5.0 | 0.00 | 0.01 | 0.00 | 77 | 1006.6 |
| 20260901114533 | 52 | 144 | 0.0 | 0.0 | 0.00 | 0.01 | 0.00 | 78 | 1006.5 |
| 20260901113051 | 52 | 162 | 0.0 | 0.0 | 0.00 | 0.01 | 0.00 | 80 | 1006.6 |
| 20260901111539 | 52 | 162 | 0.0 | 0.0 | 0.00 | 0.01 | 0.00 | 79 | 1006.5 |
| 20260901110049 | 52 | 162 | 0.0 | 0.0 | 0.00 | 0.01 | 0.00 | 79 | 1006.7 |
| 20260901104541 | 52 | 165 | 0.0 | 0.0 | 0.00 | 0.01 | 0.00 | 80 | 1006.7 |
| 20260901103058 | 52 | 171 | 0.0 | 0.0 | 0.00 | 0.01 | 0.00 | 80 | 1006.8 |
| 20260901101543 | 52 | 171 | 0.0 | 0.0 | 0.00 | 0.01 | 0.00 | 79 | 1006.9 |
| 20260901100001 | 53 | 171 | 0.0 | 0.0 | 0.00 | 0.01 | 0.00 | 78 | 1007.0 |
| 20260901094515 | 53 | 171 | 0.0 | 0.0 | 0.00 | 0.01 | 0.00 | 78 | 1007.2 |
| 20260901093100 | 53 | 171 | 0.0 | 0.0 | 0.00 | 0.01 | 0.00 | 78 | 1007.2 |
| 20260901091615 | 53 | 171 | 0.0 | 0.0 | 0.00 | 0.01 | 0.00 | 77 | 1007.3 |
| 20260901090124 | 53 | 170 | 0.0 | 0.0 | 0.00 | 0.01 | 0.00 | 79 | 1007.2 |
| 20260901084608 | 52 | 179 | 0.0 | 0.0 | 0.00 | 0.01 | 0.00 | 79 | 1007.4 |
| 20260901083107 | 53 | 179 | 0.0 | 0.0 | 0.00 | 0.01 | 0.00 | 79 | 1007.3 |
| 20260901081558 | 53 | 179 | 0.0 | 0.0 | 0.00 | 0.01 | 0.00 | 79 | 1007.6 |
| 20260901080107 | 53 | 179 | 0.0 | 0.0 | 0.00 | 0.01 | 0.00 | 79 | 1007.8 |
| 20260901074605 | 53 | 179 | 0.0 | 0.0 | 0.00 | 0.01 | 0.00 | 78 | 1007.8 |
| 20260901073032 | 54 | 179 | 0.0 | 0.0 | 0.00 | 0.01 | 0.00 | 76 | 1008.1 |
| 20260901071539 | 54 | 179 | 0.0 | 0.0 | 0.00 | 0.01 | 0.00 | 75 | 1008.0 |
| 20260901070050 | 54 | 181 | 0.0 | 6.0 | 0.00 | 0.01 | 0.00 | 75 | 1008.0 |
| 20260901064530 | 54 | 167 | 0.0 | 3.0 | 0.00 | 0.01 | 0.00 | 77 | 1008.2 |
| 20260901063047 | 53 | 178 | 0.0 | 0.0 | 0.00 | 0.01 | 0.00 | 78 | 1008.1 |
| 20260901061541 | 53 | 178 | 0.0 | 0.0 | 0.00 | 0.01 | 0.00 | 79 | 1008.2 |
| 20260901060052 | 53 | 178 | 0.0 | 0.0 | 0.00 | 0.01 | 0.00 | 79 | 1008.3 |
| 20260901054539 | 54 | 178 | 0.0 | 4.0 | 0.00 | 0.01 | 0.01 | 74 | 1008.4 |
| 20260901053058 | 55 | 153 | 1.0 | 4.0 | 0.00 | 0.01 | 0.01 | 73 | 1008.0 |
| 20260901051551 | 55 | 169 | 1.0 | 10.0 | 0.00 | 0.01 | 0.01 | 73 | 1008.4 |
| 20260901050052 | 55 | 155 | 0.0 | 11.0 | 0.00 | 0.01 | 0.01 | 73 | 1008.5 |
| 20260901044603 | 54 | 146 | 0.0 | 4.0 | 0.00 | 0.04 | 0.01 | 74 | 1008.3 |
| 20260901043040 | 52 | 193 | 2.0 | 8.0 | 0.00 | 0.04 | 0.01 | 77 | 1008.2 |